STARLINK-37366, 68807

Orbit data source: Space-Track

STARLINK-37366, 68807 is a payload satellite owned by SpaceX/Seattle (US) in SSO that was launched on Thu, 23 Apr 2026 UTC via an FALCON 9 launch vehicle from the Air Force Western Test Range (AFWTR). Payload-class satellites include a variety of spacecraft equipped with specific instruments for various scientific and technological missions. These include communications satellites like Starlink; space stations such as the ISS; scientific satellites like the Hubble; Earth observation satellites from companies like Planet Labs, Umbra, and HawkEye 360; GPS; miniature CubeSats for education and research; and military/defense satellites.

Loading next visibility...
Identifier
68807, 2026-089F
Orbit
SSO
Country
Flag of USUS
Related business
Manufacturer
SpaceX/Seattle
Mission
Operational spacecraft
Bus & Motor
STARLINK V2MO, Unknown motor
Mass
575 kg wet, ~530 kg dry
Launch date (UTC)
2026-04-23 (1 week ago)
Launch vehicle
FALCON 9
Launch site
Air Force Western Test Range (AFWTR)
Object type
Payload
Rocket body
Debris
Shape & HBR
Unknown
Radar Cross Section
RCS unknown

Expand to show TLE details & history
Last TLE update: 8 hours ago

TLE from 8 hours ago
0 STARLINK-37366
1 68807U 26089F   26121.16670139 -.02095562  00000-0 -96112-2 0  9991
2 68807  97.2855 326.6017 0001566  99.7639 185.0940 15.86666887  2441
Epoch: 2026-05-01T04:00Z
TLE epoch observation values (Epoch: 2026-05-01T04:00:03.000Z)
Latitude
-73.61866°
Longitude
73.11013°
Altitude
339.69 km
Speed
7.703 km/s
True Right ascension
23h 28m 54s
True Declination
-73° 31' 10"
Sunlit
Object was in daylight at epoch
Visualization orbit readout
Latitude
Unknown
Longitude
Unknown
Altitude
Unknown
Speed
Unknown
Apparent Right ascension
Unknown
Apparent Declination
Unknown
Sunlit
N/A
Visualization observer readout
Local Sidereal Time
19:15:48
Azimuth
Unknown
Elevation
Unknown
Doppler factor
Unknown
Orbital elements
Apogee altitude
309.555 km
Perigee altitude
307.46 km
Semi-major axis
6,686.645 km
Eccentricity
0.00016
Inclination
97.2855°
RAAN
326.6017°
Arg. of periapsis
99.7639°
True anomaly
185.09241°
Mean anomaly
185.094°
Eccentric anomaly
185.0932°
Mean motion
3.96945 °/min
Orbital period
90.69 mins
BSTAR
-0.0096112
Loading maneuver chart data...
Computing Atmospheric mass density...
Loading historical data...
Loading historical data...
Loading historical data...
Loading historical data...
Loading historical data...
Loading historical data...
Loading historical data...

Documentation

Showing up to 5 results
|